Total_Precipitation_Accumulation
0.29 0.27 0.29 0.30 0.29 0.28 0.29 0.36 0.33 0.38 0.39 0.22 0.14 0.08 0.08 0.07 0.17 0.25 0.21 0.27 0.37 0.34 0.16 0.19 0.04 0.01 0.00 0.00 0.00 0.00 0.02 0.01 0.06 0.13 0.07 0.02 0.01 0.00 0.00 0.00 0.00 0.00 0.00 0.00 0.00 0.00 0.00 0.00 0.00 0.00 0.00 0.00 0.00 0.00
0.22 0.21 0.24 0.25 0.29 0.28 0.26 0.34 0.31 0.38 0.35 0.18 0.13 0.12 0.11 0.07 0.14 0.24 0.20 0.30 0.30 0.39 0.15 0.24 0.09 0.01 0.00 0.00 0.00 0.01 0.01 0.00 0.03 0.06 0.04 0.03 0.00 0.00 0.00 0.00 0.00 0.00 0.00 0.00 0.00 0.00 0.00 0.00 0.00 0.00 0.00 0.00 0.00 0.00
0.23 0.25 0.25 0.27 0.28 0.28 0.25 0.34 0.28 0.31 0.29 0.20 0.18 0.16 0.12 0.07 0.11 0.20 0.16 0.34 0.32 0.35 0.13 0.12 0.15 0.04 0.00 0.00 0.00 0.03 0.02 0.02 0.02 0.05 0.09 0.06 0.02 0.00 0.00 0.00 0.01 0.01 0.01 0.00 0.00 0.00 0.00 0.00 0.00 0.00 0.00 0.00 0.00 0.00
0.19 0.24 0.28 0.30 0.32 0.31 0.29 0.35 0.27 0.26 0.31 0.23 0.16 0.14 0.14 0.08 0.12 0.14 0.14 0.37 0.32 0.37 0.31 0.19 0.28 0.15 0.08 0.02 0.00 0.00 0.01 0.02 0.06 0.07 0.12 0.05 0.02 0.01 0.00 0.00 0.00 0.00 0.01 0.01 0.00 0.00 0.00 0.00 0.00 0.00 0.00 0.00 0.00 0.00
0.19 0.21 0.24 0.28 0.31 0.31 0.33 0.31 0.25 0.29 0.30 0.18 0.11 0.14 0.18 0.10 0.17 0.19 0.18 0.26 0.32 0.70 0.40 0.21 0.28 0.17 0.18 0.14 0.04 0.00 0.01 0.15 0.15 0.12 0.09 0.05 0.02 0.02 0.01 0.00 0.00 0.00 0.00 0.00 0.00 0.00 0.00 0.00 0.00 0.00 0.00 0.00 0.00 0.00
0.12 0.15 0.18 0.21 0.22 0.23 0.26 0.23 0.22 0.27 0.18 0.10 0.08 0.16 0.16 0.15 0.22 0.37 0.47 0.24 0.26 0.57 0.71 0.35 0.31 0.24 0.29 0.33 0.23 0.08 0.09 0.35 0.40 0.23 0.12 0.02 0.01 0.01 0.01 0.00 0.00 0.00 0.00 0.00 0.00 0.00 0.00 0.00 0.00 0.00 0.00 0.00 0.00 0.00
0.07 0.09 0.10 0.11 0.13 0.15 0.16 0.16 0.17 0.16 0.07 0.06 0.07 0.15 0.20 0.18 0.17 0.43 0.31 0.31 0.27 0.42 0.66 0.45 0.38 0.21 0.29 0.29 0.21 0.12 0.10 0.14 0.23 0.27 0.26 0.15 0.07 0.02 0.00 0.00 0.00 0.00 0.00 0.00 0.00 0.00 0.00 0.00 0.00 0.00 0.00 0.00 0.00 0.00
0.02 0.03 0.05 0.06 0.07 0.08 0.09 0.10 0.12 0.07 0.05 0.07 0.11 0.19 0.22 0.18 0.20 0.25 0.39 0.63 0.31 0.36 0.53 0.49 0.30 0.21 0.33 0.23 0.18 0.10 0.10 0.12 0.14 0.14 0.15 0.15 0.18 0.19 0.10 0.00 0.00 0.00 0.00 0.00 0.00 0.00 0.00 0.00 0.00 0.00 0.00 0.00 0.00 0.00
0.01 0.01 0.01 0.01 0.02 0.03 0.06 0.08 0.05 0.04 0.08 0.13 0.20 0.35 0.45 0.33 0.31 0.28 0.85 1.06 0.57 0.42 0.37 0.28 0.28 0.26 0.24 0.27 0.17 0.27 0.11 0.13 0.10 0.09 0.07 0.10 0.12 0.14 0.10 0.02 0.01 0.01 0.01 0.01 0.00 0.00 0.00 0.00 0.00 0.00 0.00 0.00 0.00 0.00
0.01 0.02 0.04 0.05 0.06 0.07 0.05 0.02 0.04 0.11 0.19 0.35 0.51 0.60 0.47 0.34 0.45 0.54 1.11 1.16 0.74 0.38 0.21 0.17 0.16 0.32 0.19 0.14 0.11 0.27 0.29 0.08 0.07 0.05 0.06 0.04 0.01 0.00 0.00 0.00 0.01 0.00 0.00 0.01 0.01 0.01 0.01 0.00 0.00 0.00 0.00 0.00 0.00 0.00
0.09 0.08 0.07 0.06 0.08 0.11 0.06 0.03 0.07 0.25 0.41 0.43 0.43 0.47 0.51 0.62 0.73 0.85 1.00 0.79 0.40 0.16 0.06 0.03 0.05 0.25 0.39 0.18 0.12 0.22 0.38 0.24 0.03 0.02 0.03 0.03 0.00 0.00 0.00 0.01 0.01 0.01 0.01 0.01 0.00 0.00 0.00 0.00 0.00 0.00 0.00 0.00 0.01 0.01
0.13 0.11 0.08 0.07 0.08 0.10 0.07 0.09 0.16 0.28 0.29 0.41 0.45 0.48 0.60 0.56 0.65 0.55 0.55 0.48 0.16 0.02 0.01 0.02 0.01 0.06 0.51 0.40 0.22 0.21 0.18 0.20 0.06 0.00 0.00 0.00 0.00 0.01 0.02 0.02 0.01 0.00 0.00 0.00 0.00 0.00 0.01 0.01 0.02 0.02 0.02 0.03 0.05 0.07
0.20 0.19 0.16 0.15 0.13 0.14 0.15 0.14 0.21 0.38 0.59 0.61 0.34 0.41 0.43 0.42 0.40 0.24 0.18 0.17 0.05 0.00 0.01 0.01 0.01 0.03 0.30 0.53 0.43 0.32 0.18 0.10 0.05 0.03 0.01 0.00 0.00 0.01 0.02 0.01 0.00 0.00 0.00 0.00 0.01 0.02 0.03 0.04 0.04 0.05 0.06 0.09 0.09 0.07
0.32 0.25 0.25 0.26 0.23 0.22 0.24 0.37 0.47 0.66 0.67 0.49 0.40 0.24 0.36 0.18 0.11 0.05 0.03 0.04 0.01 0.00 0.01 0.01 0.01 0.05 0.14 0.25 0.33 0.40 0.26 0.05 0.01 0.01 0.00 0.00 0.01 0.01 0.01 0.00 0.01 0.02 0.03 0.04 0.06 0.06 0.06 0.07 0.10 0.12 0.11 0.10 0.07 0.04
0.24 0.21 0.20 0.26 0.23 0.25 0.36 0.45 0.41 0.49 0.43 0.46 0.22 0.17 0.21 0.06 0.05 0.09 0.06 0.04 0.02 0.02 0.02 0.01 0.03 0.04 0.05 0.10 0.05 0.05 0.06 0.04 0.01 0.00 0.01 0.02 0.02 0.01 0.01 0.00 0.01 0.04 0.06 0.08 0.08 0.07 0.08 0.08 0.07 0.08 0.09 0.07 0.04 0.01
0.14 0.18 0.27 0.31 0.28 0.29 0.31 0.28 0.38 0.39 0.33 0.25 0.20 0.24 0.13 0.08 0.14 0.11 0.06 0.09 0.06 0.05 0.03 0.02 0.05 0.03 0.03 0.00 0.00 0.00 0.00 0.00 0.01 0.02 0.02 0.02 0.02 0.03 0.03 0.03 0.05 0.08 0.11 0.13 0.11 0.10 0.10 0.11 0.11 0.07 0.03 0.01 0.00 0.00
0.10 0.18 0.25 0.25 0.26 0.26 0.24 0.20 0.21 0.23 0.17 0.14 0.27 0.23 0.13 0.15 0.26 0.17 0.13 0.12 0.08 0.05 0.03 0.01 0.02 0.01 0.01 0.00 0.01 0.02 0.02 0.03 0.03 0.02 0.02 0.02 0.03 0.04 0.05 0.07 0.08 0.09 0.11 0.13 0.12 0.09 0.06 0.04 0.01 0.01 0.00 0.00 0.00 0.00
0.21 0.19 0.18 0.17 0.15 0.16 0.19 0.18 0.16 0.14 0.12 0.20 0.30 0.30 0.17 0.16 0.16 0.11 0.08 0.06 0.03 0.02 0.00 0.00 0.00 0.00 0.01 0.02 0.04 0.06 0.08 0.08 0.08 0.07 0.06 0.07 0.08 0.10 0.10 0.10 0.12 0.11 0.10 0.09 0.04 0.03 0.02 0.02 0.02 0.03 0.01 0.00 0.00 0.00
0.37 0.24 0.20 0.17 0.15 0.18 0.21 0.18 0.08 0.06 0.17 0.28 0.30 0.26 0.17 0.18 0.19 0.17 0.10 0.04 0.01 0.00 0.00 0.01 0.02 0.03 0.07 0.12 0.16 0.16 0.16 0.15 0.14 0.20 0.27 0.29 0.25 0.17 0.14 0.11 0.08 0.06 0.05 0.05 0.05 0.06 0.05 0.03 0.01 0.01 0.00 0.01 0.02 0.02
0.31 0.34 0.30 0.25 0.21 0.28 0.14 0.11 0.04 0.06 0.17 0.23 0.28 0.24 0.18 0.28 0.24 0.19 0.12 0.09 0.04 0.05 0.09 0.14 0.21 0.25 0.28 0.31 0.32 0.29 0.29 0.30 0.24 0.25 0.32 0.36 0.35 0.21 0.17 0.10 0.09 0.07 0.05 0.05 0.05 0.04 0.04 0.04 0.05 0.03 0.03 0.02 0.01 0.00
0.10 0.14 0.19 0.20 0.18 0.17 0.17 0.13 0.08 0.07 0.10 0.14 0.21 0.11 0.22 0.16 0.14 0.09 0.05 0.02 0.02 0.12 0.21 0.30 0.35 0.43 0.43 0.37 0.37 0.30 0.31 0.23 0.23 0.16 0.16 0.20 0.28 0.14 0.15 0.14 0.10 0.08 0.06 0.07 0.06 0.08 0.06 0.05 0.03 0.00 0.00 0.00 0.00 0.00
0.01 0.02 0.04 0.07 0.07 0.03 0.08 0.13 0.09 0.11 0.09 0.19 0.19 0.12 0.16 0.16 0.14 0.10 0.02 0.03 0.16 0.25 0.36 0.36 0.36 0.37 0.28 0.30 0.32 0.26 0.31 0.19 0.17 0.15 0.15 0.10 0.11 0.09 0.09 0.10 0.05 0.06 0.06 0.06 0.04 0.03 0.02 0.01 0.00 0.00 0.00 0.00 0.00 0.00
0.00 0.00 0.00 0.00 0.00 0.00 0.05 0.04 0.05 0.13 0.10 0.16 0.15 0.13 0.16 0.16 0.18 0.06 0.07 0.16 0.25 0.33 0.40 0.32 0.34 0.34 0.26 0.31 0.17 0.18 0.21 0.07 0.07 0.09 0.09 0.06 0.06 0.07 0.04 0.06 0.04 0.03 0.03 0.05 0.03 0.02 0.01 0.01 0.00 0.00 0.00 0.00 0.00 0.00
0.00 0.00 0.00 0.00 0.00 0.00 0.00 0.03 0.06 0.10 0.09 0.09 0.09 0.15 0.18 0.16 0.06 0.03 0.11 0.16 0.28 0.27 0.21 0.25 0.22 0.19 0.16 0.11 0.11 0.13 0.18 0.07 0.04 0.06 0.07 0.02 0.03 0.06 0.04 0.04 0.02 0.03 0.03 0.02 0.01 0.01 0.00 0.00 0.00 0.00 0.00 0.00 0.00 0.00
0.00 0.00 0.00 0.00 0.00 0.00 0.00 0.01 0.03 0.05 0.10 0.10 0.09 0.14 0.17 0.10 0.06 0.08 0.11 0.15 0.15 0.15 0.17 0.17 0.13 0.12 0.10 0.11 0.11 0.11 0.10 0.03 0.01 0.03 0.07 0.03 0.03 0.03 0.03 0.02 0.02 0.01 0.00 0.00 0.00 0.00 0.00 0.00 0.00 0.00 0.00 0.00 0.00 0.00
0.00 0.01 0.01 0.02 0.01 0.00 0.01 0.01 0.02 0.03 0.04 0.04 0.07 0.10 0.07 0.02 0.03 0.06 0.09 0.11 0.11 0.12 0.12 0.12 0.09 0.06 0.06 0.06 0.05 0.04 0.05 0.02 0.00 0.01 0.04 0.02 0.02 0.01 0.01 0.02 0.01 0.01 0.00 0.00 0.00 0.00 0.00 0.00 0.00 0.00 0.00 0.00 0.00 0.01
0.01 0.01 0.00 0.02 0.03 0.01 0.01 0.01 0.01 0.00 0.01 0.03 0.05 0.05 0.03 0.01 0.03 0.07 0.08 0.08 0.08 0.10 0.09 0.07 0.04 0.03 0.03 0.04 0.03 0.03 0.02 0.00 0.00 0.01 0.01 0.00 0.00 0.00 0.00 0.00 0.00 0.01 0.01 0.00 0.00 0.00 0.00 0.00 0.00 0.00 0.00 0.00 0.00 0.00
0.04 0.01 0.01 0.00 0.00 0.00 0.00 0.00 0.01 0.03 0.03 0.04 0.01 0.01 0.01 0.01 0.05 0.08 0.09 0.09 0.06 0.05 0.03 0.03 0.02 0.00 0.00 0.01 0.01 0.00 0.01 0.00 0.00 0.00 0.00 0.00 0.00 0.00 0.00 0.00 0.01 0.00 0.00 0.00 0.00 0.01 0.01 0.01 0.01 0.01 0.01 0.00 0.00 0.00
0.02 0.01 0.00 0.00 0.00 0.00 0.02 0.03 0.03 0.03 0.04 0.02 0.00 0.01 0.02 0.06 0.11 0.09 0.10 0.06 0.03 0.01 0.01 0.01 0.01 0.00 0.00 0.00 0.00 0.00 0.00 0.00 0.00 0.00 0.00 0.00 0.00 0.00 0.00 0.01 0.00 0.00 0.00 0.00 0.00 0.00 0.01 0.01 0.01 0.00 0.00 0.00 0.00 0.00
0.01 0.00 0.00 0.00 0.01 0.03 0.07 0.03 0.03 0.03 0.01 0.00 0.01 0.02 0.03 0.09 0.14 0.09 0.05 0.03 0.01 0.01 0.02 0.01 0.01 0.00 0.00 0.00 0.00 0.00 0.00 0.00 0.00 0.00 0.00 0.00 0.00 0.01 0.00 0.00 0.00 0.00 0.00 0.00 0.00 0.00 0.00 0.00 0.00 0.00 0.00 0.00 0.00 0.00
0.00 0.00 0.00 0.00 0.03 0.04 0.02 0.00 0.00 0.00 0.00 0.00 0.00 0.00 0.02 0.06 0.05 0.04 0.04 0.03 0.02 0.01 0.00 0.00 0.00 0.00 0.00 0.00 0.00 0.00 0.00 0.01 0.00 0.00 0.00 0.00 0.00 0.00 0.00 0.00 0.00 0.00 0.00 0.00 0.00 0.00 0.00 0.00 0.00 0.00 0.00 0.00 0.00 0.00
0.00 0.00 0.00 0.01 0.05 0.05 0.04 0.03 0.00 0.00 0.00 0.00 0.01 0.00 0.01 0.00 0.01 0.01 0.03 0.01 0.00 0.00 0.01 0.00 0.00 0.00 0.00 0.00 0.00 0.00 0.00 0.00 0.00 0.01 0.00 0.00 0.00 0.00 0.00 0.00 0.00 0.00 0.00 0.00 0.00 0.00 0.00 0.00 0.00 0.00 0.00 0.00 0.00 0.00
0.00 0.00 0.00 0.01 0.03 0.04 0.06 0.03 0.00 0.01 0.01 0.01 0.01 0.01 0.00 0.00 0.01 0.02 0.02 0.00 0.00 0.00 0.00 0.01 0.01 0.01 0.00 0.00 0.00 0.00 0.00 0.00 0.00 0.00 0.01 0.00 0.00 0.00 0.00 0.00 0.00 0.00 0.00 0.00 0.00 0.00 0.00 0.00 0.00 0.00 0.00 0.00 0.00 0.00